#timestamp,LO_Frequency,Hit,StdDev 
1552226415.3,286047002.3,N
1552226435.1,286047001.5,N
1552226455.9,286047001.2,N
1552226475.7,286046999.1,N
1552226495.5,286046996.7,N
1552226515.4,286047000.2,N
1552226535.2,286046998.9,N
1552226555.0,286046995.3,N
1552226555.9,286046995.3,N
1552226575.8,286046993.4,N
1552226595.6,286046992.2,N
1552226615.5,286046993.6,N
1552226635.3,286046995.1,N
1552226655.1,286046996.1,N
1552226675.9,286046995.1,N
1552226695.7,286046997.6,N
1552226715.5,286046993.8,N
1552226735.4,286046994.4,N
1552226755.2,286046990.8,N
1552226775.1,286046993.1,N
1552226776.0,286046993.1,N
1552226795.8,286046990.1,N
1552226815.6,286046988.5,N
1552226835.5,286046989.4,N
1552226855.3,286046988.8,N
1552226875.1,286046987.2,N
1552226895.9,286046989.2,N
1552226915.7,286046990.0,N
1552226935.6,286046989.3,N
1552226955.4,286046991.0,N
1552226975.2,286046991.6,N
1552226995.1,286046989.7,N
1552226996.0,286046989.7,N
1552227015.8,286046985.7,Y
1552227035.7,286046991.9,P
1552227055.5,286046993.0,P
1552227075.3,286046990.2,P
1552227095.2,286046990.4,Y
1552227115.0,286046999.3,P
1552227115.9,286046999.3,N
1552227135.7,286046998.6,N
1552227155.6,286047002.2,N
1552227175.4,286046999.7,N
1552227195.3,286047001.2,N
1552227215.1,286047001.2,N
1552227216.0,286047001.2,N
1552227235.8,286047001.2,N
1552227255.7,286047001.7,N
1552227275.5,286047001.6,N
1552227295.4,286047003.2,N
1552227315.2,286047000.0,N
1552227335.0,286047006.2,N
1552227335.9,286047006.2,N
1552227355.8,286047004.5,N
1552227375.6,286047003.0,N
1552227395.4,286047004.4,N
1552227415.3,286047002.7,N
1552227435.1,286047000.5,N
1552227455.9,286047001.2,N
1552227475.7,286046996.5,N
1552227495.5,286046995.7,N
1552227515.4,286046996.9,N
1552227535.2,286046995.2,N
1552227555.0,286046994.7,N
1552227555.9,286046994.7,N
1552227575.8,286046991.7,N
1552227595.6,286046993.2,N
1552227615.5,286046994.5,N
1552227635.3,286046994.1,N
1552227655.1,286046994.7,N
1552227675.9,286046994.9,N
1552227695.7,286046994.0,N
1552227715.5,286046994.1,N
1552227735.4,286046992.0,N
1552227755.2,286046993.9,N
1552227775.1,286046996.5,N
1552227776.0,286046996.5,N
1552227795.8,286046997.4,N
1552227815.6,286046997.7,N
1552227835.5,286046997.5,N
1552227855.3,286046996.3,N
1552227875.1,286046996.1,N
1552227895.9,286046993.7,N
1552227915.7,286046997.8,N
1552227935.6,286046997.7,N
1552227955.4,286046995.4,N
1552227975.2,286046993.9,N
1552227995.1,286046999.5,N
1552227996.0,286046999.5,N
1552228015.8,286047002.7,N
1552228035.7,286046999.7,N
1552228055.5,286046999.5,N
1552228075.3,286046995.5,N
1552228095.2,286046999.2,N
1552228115.0,286046997.2,N
1552228115.9,286046997.2,N
1552228135.7,286046996.9,N
1552228155.6,286046995.1,N
1552228175.4,286046994.4,N
1552228195.3,286046994.5,N
1552228215.1,286046994.4,N
1552228235.8,286046994.5,N
1552228255.7,286046996.9,N
1552228275.5,286047000.5,N
1552228295.4,286046998.7,N
1552228315.2,286046997.8,N
1552228335.0,286046999.2,N
1552228335.9,286046999.2,N
1552228355.8,286047000.6,N
1552228375.6,286046998.8,N
1552228395.4,286046999.2,N
1552228415.3,286046995.2,N
1552228435.1,286046997.6,N
1552228455.9,286046997.7,N
1552228475.7,286046995.2,N
1552228525.6,286046996.8,E
1552228535.5,286046998.3,N
1552228555.3,286047000.0,P
1552228575.2,286047000.6,N
1552228595.0,286046998.7,N
1552228595.9,286046998.7,N
1552228615.7,286046998.8,N
1552228635.6,286046999.6,N
1552228655.4,286046999.2,N
1552228675.3,286047000.1,N
1552228695.1,286046998.4,N
1552228696.0,286046998.4,N
1552228715.8,286046998.1,N
1552228735.7,286046999.0,N
1552228755.5,286046998.8,N
1552228775.4,286047002.8,Y
1552228795.2,286047002.0,P
1552228815.0,286047002.0,N
1552228815.9,286047002.0,N
1552228835.8,286047001.3,N
1552228855.6,286047004.3,Y
1552228875.4,286047002.7,P
1552228895.3,286047002.5,P
1552228915.1,286047004.1,P
1552228935.9,286047003.6,Y
1552228955.7,286046998.7,P
1552228975.5,286046998.4,N
1552228995.4,286046998.8,N
1552229015.2,286047000.1,N
1552229035.0,286047002.4,N
1552229035.9,286047002.4,N
1552229055.8,286047002.1,N
1552229075.6,286046999.9,N
1552229095.5,286047000.2,N
1552229115.3,286047000.5,N
1552229135.1,286047000.9,N
1552229155.9,286047000.6,N
1552229175.7,286047002.7,N
1552229195.6,286046998.6,N
1552229215.4,286046999.4,N
1552229235.2,286046996.5,N
1552229255.1,286046996.8,N
1552229256.0,286046996.8,N
1552229275.8,286046998.5,N
1552229295.6,286046999.7,N
1552229315.5,286047002.3,N
1552229335.3,286047002.8,N
1552229355.2,286047001.8,N
1552229375.9,286047001.6,N
1552229395.7,286047001.9,N
1552229415.6,286047002.4,N
1552229435.4,286047000.4,N
1552229455.2,286047000.6,N
1552229475.1,286046999.3,N
1552229476.0,286046999.3,N
1552229495.8,286046998.9,N
1552229515.7,286047000.8,N
1552229535.5,286046998.5,N
1552229555.3,286047000.9,N
1552229575.2,286047000.9,N
1552229595.0,286046998.2,N
1552229595.9,286046998.2,N
1552229615.8,286046998.1,N
1552229635.6,286046998.2,N
1552229655.4,286047001.0,N
1552229675.3,286046998.6,N
1552229695.1,286047000.6,N
1552229715.8,286047002.7,N
1552229735.7,286047003.2,N
1552229755.5,286047002.0,N
1552229775.4,286047004.4,N
1552229795.2,286047004.4,N
1552229815.0,286047003.1,N
1552229846.0,286047003.1,E
1552229855.9,286047001.3,N
1552229875.7,286047000.3,P
1552229895.6,286046998.1,P
1552229915.4,286046999.5,N
1552229935.2,286046997.6,N
1552229955.1,286046998.0,N
1552229956.0,286046998.0,N
1552229975.8,286046997.9,N
1552229995.7,286046995.5,Y
